Location: Krasnoyarskiy Pitomnik
(51.1333°N, 71.6167°E)
Time: 10:37:38
(UTC+00:00)

Altair - Pass Details

Date: 13 April 2024
Orbit: 1502 x 1682 km, 47.2° (Epoch: 23 May)

Event Time Altitude Azimuth Distance (km) Brightness Sun altitude
Rises 18:31:13 0° 261° (W) 4,854 10.2 -28.7°
Reaches altitude 10° 18:34:23 10° 259° (W) 3,845 9.6 -28.8°
Maximum altitude 18:44:04 71° 178° (S) 1,647 7.3 -29.1°
Drops below altitude 10° 18:53:23 10° 97° (E) 3,706 9.4 -29.3°
Sets 18:56:23 0° 96° (E) 4,671 9.9 -29.3°
